Total_Precipitation_Accumulation
0.33 0.31 0.30 0.31 0.31 0.32 0.35 0.41 0.59 0.76 0.91 1.01 1.14 1.38 1.55 1.64 1.63 1.63 1.70 1.62 1.44 1.52 1.64 1.61 1.82 1.89 1.87 1.87 1.81 1.93 1.96 1.69 1.52 1.79 1.77 1.38 1.11 1.00 1.02 1.08 1.11 1.16 1.17
0.24 0.24 0.22 0.23 0.23 0.23 0.26 0.34 0.50 0.74 0.97 1.18 1.34 1.53 1.84 2.00 2.00 2.06 2.01 1.96 1.85 1.87 1.79 1.87 2.08 2.13 2.24 2.33 2.17 2.30 2.38 2.07 1.76 2.14 2.58 2.11 1.69 1.13 0.91 1.02 1.12 1.26 1.28
0.21 0.22 0.22 0.20 0.18 0.18 0.21 0.27 0.41 0.64 0.93 1.22 1.47 1.65 1.88 2.14 2.24 2.15 2.10 2.13 2.21 2.26 2.15 2.11 2.23 2.25 2.32 2.52 2.56 2.51 2.61 2.53 2.20 2.16 2.60 2.48 2.16 1.72 1.16 1.04 1.11 1.27 1.36
0.21 0.20 0.20 0.23 0.20 0.21 0.22 0.26 0.41 0.57 0.77 1.02 1.34 1.59 1.84 2.15 2.22 2.20 2.18 2.21 2.33 2.42 2.38 2.33 2.39 2.40 2.35 2.48 2.57 2.55 2.76 2.93 2.66 2.40 2.18 2.10 2.12 2.12 1.68 1.27 1.19 1.34 1.39
0.24 0.21 0.19 0.22 0.27 0.26 0.27 0.34 0.48 0.62 0.79 1.01 1.32 1.64 1.83 1.99 2.19 2.20 2.12 2.05 2.12 2.14 2.12 2.24 2.39 2.41 2.38 2.39 2.58 2.70 2.87 2.86 2.78 2.65 2.51 2.33 2.13 1.81 1.89 1.75 1.51 1.48 1.37
0.22 0.25 0.28 0.29 0.31 0.36 0.40 0.48 0.60 0.80 0.93 1.01 1.13 1.30 1.51 1.79 1.92 2.02 2.06 2.07 2.07 1.95 1.88 1.98 2.09 2.18 2.23 2.22 2.28 2.44 2.58 2.75 2.89 2.82 2.64 2.53 2.41 2.23 2.10 1.82 1.67 1.73 1.56
0.31 0.39 0.49 0.45 0.44 0.48 0.59 0.66 0.73 0.82 0.86 0.84 0.89 1.01 1.17 1.39 1.52 1.62 1.81 1.88 1.92 1.87 1.82 1.80 1.87 1.95 2.00 2.10 2.27 2.26 2.29 2.47 2.66 2.66 2.59 2.57 2.35 2.26 2.31 2.14 1.81 1.72 1.61
0.43 0.57 0.69 0.73 0.70 0.69 0.72 0.70 0.73 0.69 0.69 0.72 0.77 0.83 0.89 1.02 1.14 1.21 1.37 1.50 1.50 1.48 1.47 1.54 1.64 1.79 1.89 1.98 2.13 2.17 2.13 2.21 2.27 2.29 2.41 2.49 2.37 2.17 2.12 2.15 2.22 1.97 1.73
0.59 0.75 0.88 0.95 0.91 0.83 0.78 0.75 0.77 0.74 0.66 0.66 0.73 0.79 0.82 0.83 0.86 0.90 0.89 0.98 1.06 1.09 1.15 1.22 1.36 1.55 1.69 1.76 1.86 2.00 2.00 2.06 2.05 2.11 2.19 2.20 2.25 2.11 1.96 1.91 2.00 2.12 1.91
0.83 0.93 1.01 1.00 0.98 1.03 0.99 0.83 0.78 0.80 0.73 0.79 0.80 0.76 0.74 0.71 0.69 0.72 0.77 0.79 0.87 0.98 1.08 1.10 1.18 1.31 1.40 1.51 1.69 1.83 1.90 1.93 1.90 1.89 1.96 2.01 2.07 2.08 2.04 2.01 2.00 1.97 1.91
1.02 1.04 1.11 1.04 0.91 0.92 0.90 0.89 0.85 0.81 0.82 0.85 0.85 0.74 0.71 0.70 0.69 0.66 0.68 0.77 0.85 0.95 1.01 1.07 1.12 1.15 1.25 1.31 1.42 1.58 1.71 1.74 1.76 1.66 1.69 1.81 1.87 2.03 2.07 2.03 1.99 1.97 1.89
0.98 1.00 1.06 0.98 0.83 0.79 0.70 0.74 0.82 0.84 0.92 0.92 0.84 0.75 0.73 0.75 0.81 0.78 0.70 0.71 0.77 0.79 0.90 1.04 1.04 1.05 1.11 1.19 1.31 1.41 1.46 1.56 1.53 1.45 1.47 1.58 1.64 1.78 1.90 2.00 1.91 1.92 1.87
0.76 0.74 0.75 0.81 0.78 0.74 0.66 0.72 0.78 0.84 0.89 0.92 0.90 0.79 0.68 0.70 0.75 0.76 0.68 0.66 0.70 0.74 0.88 1.02 1.14 1.07 0.98 1.08 1.18 1.23 1.26 1.27 1.23 1.22 1.25 1.31 1.38 1.51 1.63 1.74 1.83 1.84 1.77
0.55 0.53 0.48 0.53 0.56 0.59 0.64 0.69 0.79 0.91 0.96 0.95 0.89 0.85 0.78 0.79 0.74 0.64 0.62 0.64 0.63 0.61 0.68 0.83 0.94 0.99 0.95 0.92 0.94 0.98 1.14 1.13 1.05 0.98 0.97 1.00 1.03 1.15 1.29 1.40 1.55 1.71 1.83
0.40 0.38 0.34 0.34 0.36 0.39 0.48 0.55 0.67 0.82 0.95 1.01 0.96 0.88 0.82 0.72 0.64 0.58 0.51 0.52 0.49 0.48 0.55 0.71 0.89 0.95 0.95 0.98 0.98 0.91 0.95 1.01 1.02 0.96 0.87 0.81 0.81 0.91 1.00 1.10 1.35 1.55 1.71
0.29 0.26 0.25 0.23 0.25 0.31 0.38 0.38 0.49 0.64 0.76 0.81 0.83 0.85 0.81 0.64 0.56 0.49 0.42 0.40 0.42 0.43 0.45 0.53 0.70 0.86 0.84 1.00 1.05 0.99 0.90 0.91 0.91 0.91 0.91 0.90 0.85 0.75 0.71 0.79 0.95 1.19 1.39
0.24 0.22 0.21 0.22 0.24 0.31 0.34 0.34 0.42 0.54 0.58 0.62 0.66 0.69 0.66 0.52 0.46 0.36 0.32 0.35 0.36 0.39 0.42 0.47 0.59 0.74 0.89 0.92 0.83 0.92 0.93 0.90 0.90 0.87 0.88 0.91 0.91 0.95 0.84 0.78 0.77 0.81 0.98
0.17 0.22 0.19 0.18 0.20 0.25 0.31 0.40 0.41 0.42 0.44 0.47 0.50 0.50 0.50 0.45 0.38 0.30 0.29 0.31 0.34 0.39 0.40 0.43 0.49 0.57 0.76 0.81 0.72 0.90 0.94 0.95 0.94 0.92 0.95 0.98 1.02 0.99 1.09 1.06 0.97 0.90 0.90
0.08 0.11 0.11 0.11 0.12 0.12 0.14 0.16 0.18 0.21 0.24 0.33 0.39 0.42 0.42 0.39 0.33 0.29 0.35 0.41 0.41 0.41 0.39 0.39 0.41 0.44 0.53 0.62 0.60 0.74 0.88 0.98 0.97 0.88 0.90 0.95 0.99 1.18 1.22 1.13 1.11 1.04 0.99
0.03 0.05 0.07 0.06 0.06 0.06 0.06 0.05 0.06 0.10 0.14 0.20 0.26 0.32 0.35 0.38 0.40 0.48 0.56 0.57 0.53 0.48 0.42 0.39 0.38 0.41 0.43 0.56 0.45 0.57 0.74 0.91 1.01 0.94 0.91 1.06 1.03 1.05 1.00 0.97 1.16 1.14 1.04
0.02 0.03 0.05 0.05 0.05 0.05 0.03 0.02 0.02 0.03 0.03 0.05 0.10 0.20 0.33 0.39 0.48 0.58 0.60 0.59 0.54 0.45 0.40 0.38 0.36 0.37 0.45 0.60 0.54 0.61 0.71 0.83 0.92 0.95 0.97 0.95 1.03 0.86 0.82 0.87 1.01 1.16 1.10
0.02 0.03 0.04 0.04 0.06 0.06 0.04 0.03 0.02 0.02 0.02 0.04 0.08 0.14 0.22 0.32 0.45 0.54 0.52 0.51 0.50 0.47 0.43 0.44 0.41 0.43 0.53 0.61 0.61 0.61 0.66 0.74 0.81 0.84 0.76 0.75 0.83 0.69 0.64 0.63 0.76 0.94 0.96
0.03 0.04 0.05 0.05 0.06 0.05 0.06 0.05 0.04 0.04 0.03 0.03 0.04 0.07 0.13 0.24 0.38 0.41 0.41 0.44 0.46 0.45 0.43 0.42 0.40 0.39 0.47 0.57 0.68 0.58 0.51 0.50 0.58 0.64 0.64 0.57 0.54 0.53 0.49 0.53 0.62 0.69 0.83
0.03 0.03 0.03 0.04 0.04 0.03 0.04 0.05 0.05 0.05 0.04 0.03 0.02 0.02 0.04 0.07 0.12 0.17 0.21 0.27 0.32 0.33 0.33 0.35 0.39 0.42 0.42 0.43 0.49 0.51 0.48 0.43 0.43 0.43 0.37 0.35 0.38 0.45 0.47 0.48 0.50 0.56 0.77
0.03 0.02 0.02 0.03 0.03 0.02 0.02 0.03 0.04 0.05 0.05 0.04 0.03 0.03 0.04 0.06 0.06 0.08 0.11 0.14 0.17 0.20 0.26 0.31 0.35 0.35 0.39 0.39 0.43 0.44 0.45 0.50 0.54 0.55 0.47 0.41 0.39 0.41 0.45 0.48 0.53 0.65 0.76
0.03 0.03 0.03 0.03 0.04 0.03 0.02 0.02 0.02 0.03 0.04 0.06 0.04 0.02 0.02 0.03 0.04 0.05 0.06 0.07 0.08 0.11 0.13 0.16 0.19 0.19 0.25 0.33 0.36 0.38 0.40 0.43 0.50 0.54 0.55 0.55 0.56 0.57 0.56 0.54 0.51 0.52 0.61